Latest Coastal Weather Observations for Truscott

IDW60701

Issued at 6:42 pm WST Monday 30 March 2015 (issued every 10 minutes, with the page automatically refreshed every 10 minutes)

About coastal observations | Map of coastal stations | Coastal observations for WA | Marine services | Other Formats
Station Details ID: 001020 Name: TRUSCOTT Lat: -14.09 Lon: 126.39 Height: 51.0 m
Data from the previous 72 hours. | See also: Recent months at Truscott
Date/Time
WST
Temp

°C
Wind Pressure Rain
since 9am
mm
Weather Cloud Vis
km
Sea
Height
m
Swell
Dir
 
Speed
knots
Gust
knots
hPa Trend Height
m
Period
s
Dir
30/06:30pm 28.0 N 1 0 1011.0 - 0.0 - - 10 - - - -
30/06:00pm 28.6 N 3 - 1010.8 - 0.0 - - 10 - - - -
30/05:30pm 30.0 N 4 - 1011.0 - 0.0 - - 10 - - - -
30/05:00pm 30.0 N 6 - 1011.0 - 0.0 - - 10 - - - -
30/04:30pm 31.0 N 6 - 1010.0 - 0.0 - - 10 - - - -
30/04:00pm 31.0 NNW 6 - 1010.0 - 0.0 - - 10 - - - -
30/03:30pm 31.0 N 7 - 1010.0 - 0.0 - - 10 - - - -
30/03:00pm 31.4 N 7 - 1010.0 - 0.0 - - 10 - - - -
30/02:30pm 32.0 N 7 - 1010.0 - 0.0 - Partly cloudy 10 - - - -
30/02:00pm 32.0 N 6 - 1010.0 - 0.0 - Partly cloudy 10 - - - -
30/01:30pm 32.0 NNW 6 - 1010.0 - 0.0 - Partly cloudy 10 - - - -
30/01:00pm 32.0 N 7 - 1011.0 - 0.0 - - 10 - - - -
30/12:30pm 32.0 NE 7 - 1011.0 - 0.0 - - 10 - - - -
30/12:00pm 32.8 ENE 7 - 1011.3 - 0.0 - - 10 - - - -
30/11:30am 33.0 NE 7 - 1012.0 - 0.0 - - 10 - - - -
30/11:00am 33.0 ENE 8 - 1012.0 - 0.0 - - 10 - - - -
30/10:30am 32.0 ENE 5 - 1012.0 - 0.0 - - 10 - - - -
30/10:00am 32.0 N 4 - 1013.0 - 0.0 - - 10 - - - -
30/09:30am 31.0 SSE 4 - 1013.0 - 0.0 - - 10 - - - -
30/09:00am 30.5 S 3 - 1012.9 - 0.0 - - 10 - - - -
30/08:30am 30.0 SW 5 - 1013.0 - 0.0 - - 10 - - - -
30/08:00am 29.0 SSW 5 4 1013.0 - 0.0 - - 10 - - - -
30/07:30am 28.0 SW 6 - 1013.0 - 0.0 - - 10 - - - -
30/07:00am 28.0 SSW 6 - 1013.0 - 0.0 - - 10 - - - -
30/06:30am 27.0 SSW 6 - 1012.0 - 0.0 - - 10 - - - -
30/06:00am 25.9 S 5 - 1011.8 - 0.0 - - 10 - - - -
30/05:30am 26.0 SSW 4 - 1012.0 - 0.0 - - 10 - - - -
30/05:00am 26.0 S 6 - 1011.0 - 0.0 - - 10 - - - -
30/04:30am 26.0 S 5 - 1011.0 - 0.0 - - 10 - - - -
30/04:00am 26.0 S 5 - 1011.0 - 0.0 - - 10 - - - -
30/03:30am 25.0 S 4 - 1011.0 - 0.0 - - 10 - - - -
30/03:00am 25.0 CALM 0 - 1010.2 - 0.0 - - 8 - - - -
30/02:30am 25.0 CALM 0 - 1010.0 - 0.0 - - 10 - - - -
30/02:00am 25.0 CALM 0 - 1010.0 - 0.0 - - 10 - - - -
30/01:30am 25.0 CALM 0 - 1010.0 - 0.0 - - 8 - - - -
30/01:00am 25.0 CALM 0 - 1010.0 - 0.0 - - 6 - - - -
30/12:30am 26.0 CALM 0 - 1010.0 - 0.0 - - 10 - - - -
30/12:00am 25.6 CALM 0 0 1010.7 - 0.0 - - 10 - - - -
 
Date/Time
WST
Temp

°C
Wind Pressure Rain
since 9am
mm
Weather Cloud Vis
km
Sea
Height
m
Swell
Dir
 
Speed
knots
Gust
knots
hPa Trend Height
m
Period
s
Dir
29/11:30pm 26.0 CALM 0 - 1011.0 - 0.0 - - 10 - - - -
29/11:00pm 26.0 S 1 - 1012.0 - 0.0 - - 10 - - - -
29/10:30pm 26.0 CALM 0 - 1012.0 - 0.0 - - 10 - - - -
29/10:00pm 26.0 CALM 0 - 1012.0 - 0.0 - - 10 - - - -
29/09:30pm 26.0 CALM 0 - 1012.0 - 0.0 - - 10 - - - -
29/09:00pm 26.6 CALM 0 - 1012.4 - 0.0 - - 10 - - - -
29/08:30pm 27.0 CALM 0 - 1013.0 - 0.0 - - 10 - - - -
29/08:00pm 27.0 CALM 0 - 1013.0 - 0.0 - - 10 - - - -
29/07:30pm 27.0 CALM 0 - 1012.0 - 0.0 - - 10 - - - -
29/07:26pm 28.0 CALM 0 - 1012.0 - 0.0 - - 10 - - - -
29/07:00pm 28.0 CALM 0 - 1012.0 - 0.0 - - 4 - - - -
29/06:59pm 28.0 CALM 0 - 1012.0 - 0.0 - - 5 - - - -
29/06:41pm 28.0 N 1 - 1012.0 - 0.0 - - 8 - - - -
29/06:30pm 28.0 N 3 - 1012.0 - 0.0 - - 1 - - - -
29/06:12pm 28.0 NNW 3 - 1012.0 - 0.0 - - 5 - - - -
29/06:00pm 28.0 N 4 - 1011.4 - 0.0 - - 10 - - - -
29/05:30pm 29.0 N 4 - 1011.0 - 0.0 - - 10 - - - -
29/05:00pm 29.0 N 5 - 1011.0 - 0.0 - - 10 - - - -
29/04:30pm 30.0 N 6 - 1011.0 - 0.0 - - 10 - - - -
29/04:00pm 30.0 NNW 6 - 1011.0 - 0.0 - - 10 - - - -
29/03:30pm 31.0 NNW 7 - 1011.0 - 0.0 - - 10 - - - -
29/03:00pm 30.8 N 7 - 1010.4 - 0.0 - - 10 - - - -
29/02:30pm 31.0 NNW 7 - 1011.0 - 0.0 - - 10 - - - -
29/02:00pm 31.0 N 8 - 1011.0 - 0.0 - - 10 - - - -
29/01:30pm 31.0 N 8 - 1011.0 - 0.0 - Partly cloudy 10 - - - -
29/01:00pm 31.0 N 8 - 1011.0 - 0.0 - Partly cloudy 10 - - - -
29/12:30pm 31.0 N 6 - 1011.0 - 0.0 - - 10 - - - -
29/12:00pm 31.5 NNE 7 - 1011.5 - 0.0 - - 10 - - - -
29/11:30am 31.0 N 6 - 1012.0 - 0.0 - - 10 - - - -
29/11:00am 31.0 N 6 - 1012.0 - 0.0 - - 10 - - - -
29/10:30am 32.0 ENE 3 - 1013.0 - 0.0 - - 10 - - - -
29/10:00am 31.0 ENE 3 - 1013.0 - 0.0 - - 10 - - - -
29/09:30am 31.0 ENE 4 - 1013.0 - 0.0 - - 10 - - - -
29/09:00am 30.2 ENE 4 - 1013.1 - 7.8 - - 10 - - - -
29/08:30am 30.0 E 4 - 1013.0 - 7.8 - - 10 - - - -
29/08:00am 29.0 E 4 - 1013.0 - 7.6 - - 10 - - - -
29/07:30am 28.0 ESE 4 - 1013.0 - 7.6 - - 10 - - - -
29/07:00am 27.0 ESE 3 - 1012.0 - 7.6 - - 10 - - - -
29/06:30am 26.0 SE 3 - 1012.0 - 7.6 - - 10 - - - -
29/06:00am 23.9 SE 4 - 1011.3 - 7.6 - - 10 - - - -
29/05:30am 24.0 SSE 4 - 1011.0 - 7.6 - - 10 - - - -
29/05:00am 24.0 SE 3 - 1011.0 - 7.6 - - 10 - - - -
29/04:30am 23.0 S 3 - 1011.0 - 7.6 - - 10 - - - -
29/04:00am 24.0 SSE 3 - 1011.0 - 7.6 - - 10 - - - -
29/03:30am 24.0 SE 4 - 1010.0 - 7.6 - - 10 - - - -
29/03:00am 23.2 SSE 2 - 1010.2 - 7.6 - - 10 - - - -
29/02:30am 23.0 SSE 3 - 1010.0 - 7.6 - - 10 - - - -
29/02:00am 24.0 SSE 3 - 1011.0 - 7.6 - - 10 - - - -
29/01:30am 24.0 SE 3 - 1011.0 - 7.6 - - 10 - - - -
29/01:00am 24.0 SE 4 - 1011.0 - 7.6 - - 10 - - - -
29/12:30am 24.0 ESE 2 - 1011.0 - 7.6 - - 10 - - - -
29/12:00am 24.2 ESE 4 - 1011.5 - 7.6 - - 10 - - - -
 
Date/Time
WST
Temp

°C
Wind Pressure Rain
since 9am
mm
Weather Cloud Vis
km
Sea
Height
m
Swell
Dir
 
Speed
knots
Gust
knots
hPa Trend Height
m
Period
s
Dir
28/11:30pm 24.0 ESE 4 - 1012.0 - 7.6 - - 10 - - - -
28/11:00pm 24.0 ESE 5 - 1012.0 - 7.6 - - 10 - - - -
28/10:30pm 24.0 ESE 4 - 1012.0 - 7.6 - - 10 - - - -
28/10:00pm 24.0 ESE 5 - 1012.0 - 7.6 - - 10 - - - -
28/09:30pm 24.0 ESE 5 - 1013.0 - 7.6 - - 10 - - - -
28/09:00pm 24.2 ESE 5 - 1012.3 - 7.6 - - 10 - - - -
28/08:30pm 24.0 ESE 5 - 1012.0 - 7.6 - - 10 - - - -
28/08:00pm 24.0 ESE 5 - 1012.0 - 7.6 - - 10 - - - -
28/07:30pm 24.0 E 3 - 1012.0 - 7.6 - - 10 - - - -
28/07:00pm 24.0 ESE 5 - 1012.0 - 7.6 - - 10 - - - -
28/06:30pm 24.0 ESE 5 - 1011.0 - 7.6 - - 10 - - - -
28/06:00pm 23.8 ESE 5 - 1011.1 - 7.6 - - 10 - - - -
28/05:30pm 24.0 ESE 6 - 1011.0 - 7.6 - - 10 - - - -
28/05:00pm 25.0 ESE 6 - 1011.0 - 7.6 - Partly cloudy 10 - - - -
28/04:57pm 25.0 ESE 6 - 1011.0 - 7.6 - Partly cloudy 10 - - - -
28/04:30pm 25.0 E 8 - 1011.0 - 7.6 - Partly cloudy 10 - - - -
28/04:25pm 26.0 E 8 - 1011.0 - 7.6 - Partly cloudy 10 - - - -
28/04:00pm 26.0 ENE 6 - 1011.0 - 7.6 - Partly cloudy 10 - - - -
28/03:30pm 26.0 E 6 - 1011.0 - 7.6 - - 10 - - - -
28/03:00pm 26.1 ENE 4 - 1010.9 - 7.6 - - 10 - - - -
28/02:31pm 26.0 N 3 - 1011.0 - 7.6 - Partly cloudy 10 - - - -
28/02:30pm 26.0 N 3 - 1011.0 - 7.6 - Partly cloudy 10 - - - -
28/02:19pm 26.0 N 5 - 1011.0 - 7.6 - Partly cloudy 10 - - - -
28/02:13pm 25.0 N 6 - 1011.0 - 7.6 - Partly cloudy 10 - - - -
28/02:00pm 26.0 N 5 - 1011.0 - 7.6 - Partly cloudy 10 - - - -
28/01:58pm 26.0 N 5 - 1011.0 - 7.6 - Partly cloudy 10 - - - -
28/01:32pm 25.0 N 5 - 1012.0 - 7.4 - Partly cloudy 10 - - - -
28/01:30pm 25.0 N 4 - 1012.0 - 7.4 - Partly cloudy 10 - - - -
28/01:29pm 25.0 N 4 - 1012.0 - 7.4 - Partly cloudy 10 - - - -
28/01:03pm 25.0 N 8 - 1012.0 - 4.6 - Partly cloudy 4 - - - -
28/01:02pm 25.0 N 8 - 1012.0 - 4.4 - Partly cloudy 5 - - - -
28/01:00pm 25.0 N 7 - 1012.0 - 3.4 - Partly cloudy 8 - - - -
28/12:40pm 27.0 N 5 - 1012.0 - 2.6 - Partly cloudy 10 - - - -
28/12:30pm 27.0 N 5 - 1012.0 - 2.6 - Partly cloudy 10 - - - -
28/12:00pm 26.4 NNE 4 - 1012.6 - 2.6 - Cloudy 10 - - - -
28/11:54am 26.0 NNE 4 - 1013.0 - 2.6 - Partly cloudy 10 - - - -
28/11:30am 26.0 N 5 - 1013.0 - 2.6 - Partly cloudy 10 - - - -
28/11:23am 26.0 NNE 5 - 1013.0 - 2.6 - Partly cloudy 10 - - - -
28/11:00am 26.0 N 3 - 1013.0 - 2.6 - Partly cloudy 10 - - - -
28/10:30am 25.0 CALM 0 - 1014.0 - 2.6 - Partly cloudy 10 - - - -
28/10:23am 25.0 ENE 2 - 1014.0 - 2.4 - Partly cloudy 10 - - - -
28/10:00am 25.0 ENE 5 - 1014.0 - 2.4 - Partly cloudy 10 - - - -
28/09:46am 25.0 ENE 3 - 1014.0 - 2.4 - Partly cloudy 10 - - - -
28/09:30am 24.0 NE 4 - 1014.0 - 1.8 - Partly cloudy 3 - - - -
28/09:25am 24.0 NNE 4 - 1014.0 - 1.0 - Partly cloudy 4 - - - -
28/09:00am 24.1 N 4 - 1013.7 - 13.4 - Cloudy 10 - - - -
28/08:32am 24.0 ENE 5 - 1014.0 - 12.8 - Partly cloudy 10 - - - -
28/08:30am 24.0 ENE 5 - 1014.0 - 12.8 - Partly cloudy 10 - - - -
28/08:07am 24.0 E 4 - 1014.0 - 12.0 - Partly cloudy 10 - - - -
28/08:00am 24.0 NE 6 - 1014.0 - 12.0 - Partly cloudy 8 - - - -
28/07:48am 24.0 N 5 - 1013.0 - 11.6 - Partly cloudy 3 - - - -
28/07:47am 24.0 N 5 - 1013.0 - 11.2 - Partly cloudy 4 - - - -
28/07:30am 24.0 NNW 4 - 1013.0 - 9.0 - Partly cloudy 10 - - - -
28/07:00am 26.0 NNE 8 - 1013.0 - 8.8 - Partly cloudy 10 - - - -
28/06:30am 26.0 E 4 - 1012.0 - 8.8 - Partly cloudy 10 - - - -
28/06:00am 25.4 E 5 - 1011.5 - 8.8 - Cloudy 10 - - - -
28/05:30am 25.0 E 5 - 1011.0 - 8.8 - Partly cloudy 10 - - - -
28/05:00am 25.0 E 5 - 1011.0 - 8.8 - - 10 - - - -
28/04:30am 24.0 ESE 6 - 1010.0 - 8.8 - Partly cloudy 10 - - - -
28/04:00am 25.0 ESE 5 - 1011.0 - 8.0 - Partly cloudy 10 - - - -
28/03:30am 24.0 ESE 4 - 1010.0 - 8.0 - Partly cloudy 10 - - - -
28/03:00am 24.6 ESE 6 - 1009.8 - 8.0 - Mostly cloudy 10 - - - -
28/02:30am 25.0 ESE 6 - 1010.0 - 7.8 - Partly cloudy 10 - - - -
28/02:00am 25.0 ESE 6 - 1010.0 - 7.8 - - 10 - - - -
28/01:30am 26.0 E 8 - 1011.0 - 7.8 - - 10 - - - -
28/01:00am 26.0 E 8 - 1011.0 - 7.8 - Partly cloudy 10 - - - -
28/12:30am 26.0 E 8 - 1011.0 - 7.8 - - 10 - - - -
28/12:00am 26.1 E 9 - 1011.4 - 7.8 - Mostly clear 10 - - - -
 
Date/Time
WST
Temp

°C
Wind Pressure Rain
since 9am
mm
Weather Cloud Vis
km
Sea
Height
m
Swell
Dir
 
Speed
knots
Gust
knots
hPa Trend Height
m
Period
s
Dir
27/11:30pm 26.0 E 8 - 1012.0 - 7.8 - Partly cloudy 10 - - - -
27/11:00pm 26.0 E 8 - 1012.0 - 7.8 - Partly cloudy 6 - - - -
27/10:30pm 26.0 E 7 - 1012.0 - 7.8 - Partly cloudy 10 - - - -
27/10:00pm 26.0 E 7 - 1012.0 - 7.8 - Partly cloudy 9 - - - -
27/09:55pm 26.0 E 7 - 1012.0 - 7.8 - Partly cloudy 10 - - - -
27/09:30pm 26.0 E 7 - 1013.0 - 7.8 - Partly cloudy 10 - - - -
27/09:00pm 26.3 E 7 - 1012.6 - 7.8 - Cloudy 10 - - - -
27/08:41pm 26.0 E 8 - 1013.0 - 7.8 - Partly cloudy 10 - - - -
27/08:30pm 26.0 E 6 - 1013.0 - 7.8 - Partly cloudy 10 - - - -
27/08:00pm 26.0 E 8 - 1012.0 - 7.8 - Partly cloudy 10 - - - -
27/07:30pm 26.0 E 9 - 1012.0 - 7.8 - Partly cloudy 10 - - - -
27/07:00pm 26.0 E 7 - 1011.0 - 7.8 - - 10 - - - -

Other Formats:

Comma delimited format used in spreadsheet applications
http://www.bom.gov.au/fwo/IDW60701/IDW60701.95101.axf

JavaScript Object Notation format (JSON) in row-major order
http://www.bom.gov.au/fwo/IDW60701/IDW60701.95101.json